Location: Capel Gartheli
(52.1833°N, 4.0667°W)
Time: 08:55:16
(UTC+00:00)

NOSS 2-1 (D) - Pass Details

Date: 18 February 2020
Orbit: 450 x 1753 km, 63.3° (Epoch: 26 March)

Event Time Altitude Azimuth Distance (km) Brightness Sun altitude
Exits shadow 05:19:17 73° 279° (W) 506 2.8 -20.2°
Maximum altitude 05:19:29 76° 317° (NW) 500 2.9 -20.1°
Drops below altitude 10° 05:23:25 10° 44° (NE) 1,827 6.7 -19.5°
Sets 05:25:52 0° 46° (NE) 2,872 7.8 -19.2°
